Location: Praha
(50.0830°N, 14.4670°E)
Time: 05:59:05
(UTC+02:00)

ISS - Pass Details

Date: 27 March 2020
Orbit: 417 x 423 km, 51.6° (Epoch: 29 March)

Event Time Altitude Azimuth Distance (km) Brightness Sun altitude
Rises 20:41:07 0° 283° (WNW) 2,362 1.3 -21.0°
Reaches altitude 10° 20:43:13 10° 285° (WNW) 1,497 0.1 -21.3°
Enters shadow 20:46:09 64° 304° (NW) 467 -3.4 -21.7°
